Cortland, IL

10:35 AM CDT on August 28, 2016 (GMT -0500)
De Kalb Taylor Municipal

Weather History for KDKB - April, 2013

Change the Weather History Date:

Thursday, April 11, 2013

  Actual Average (KARR) Record (KARR)
Temperature  
Mean Temperature 41 °F 47 °F  
Max Temperature 46 °F 58 °F 77 °F (2005)
Min Temperature 36 °F 36 °F 22 °F (2012)
Degree Days  
Heating Degree Days 24 18  
Month to date heating degree days 218  
Since 1 July heating degree days 6226  
Cooling Degree Days 0 0  
Month to date cooling degree days 0  
Year to date cooling degree days 0  
Moisture  
Dew Point 38 °F    
Average Humidity 92    
Maximum Humidity 93    
Minimum Humidity 87    
Precipitation  
Precipitation 0.24 in 0.11 in 0.88 in (2007)
Month to date precipitation 1.15  
Year to date precipitation 6.47  
Sea Level Pressure  
Sea Level Pressure 29.63 in    
Wind  
Wind Speed 18 mph (ESE)    
Max Wind Speed 30 mph    
Max Gust Speed 39 mph    
Visibility 6 miles    
Events Rain , Snow    
T = Trace of Precipitation, MM = Missing Value Source: NWS Daily Summary

Daily Weather History Graph

Daily Weather History Graph

Search for Another Location

Airport or City:

Trip Planner

Search our weather history database for the weather conditions in past years. The results will help you decide how hot, cold, wet, or windy it might be!

Date:

Astronomy

Apr. 11, 2013 Rise Set
Actual Time 6:20 AM CDT 7:31 PM CDT
Civil Twilight 5:51 AM CDT 8:00 PM CDT
Nautical Twilight 5:17 AM CDT 8:35 PM CDT
Astronomical Twilight 4:41 AM CDT 9:11 PM CDT
Moon 6:50 AM CDT (4/11) 9:07 PM CDT (4/11)
Length of Visible Light 14h 08m
Length of Day
13h 11m
New Moon, 2% of the Moon is Illuminated
Apr 11
New Moon
Apr 18
First Quarter
Apr 25
Full
May 2
Last Quarter
May 9
New

Hourly Weather History & Observations

Time (CDT) Temp. Windchill Dew Point Humidity Pressure Visibility Wind Dir Wind Speed Gust Speed Precip Events Conditions
12:15 AM 37.0 °F 25.6 °F 34.9 °F 92% 29.82 in 4.0 mi ENE 24.2 mph 29.9 mph 0.08 in Rain Rain
12:35 AM 36.9 °F 25.9 °F 34.7 °F 92% 29.82 in 3.0 mi ENE 21.9 mph 31.1 mph 0.16 in Rain Rain
12:55 AM 36.5 °F 24.2 °F 34.3 °F 92% 29.74 in 4.0 mi ENE 27.6 mph 39.1 mph 0.21 in Rain Light Rain
1:15 AM 36.5 °F 23.7 °F 34.3 °F 92% 29.74 in 10.0 mi East 29.9 mph 36.8 mph N/A Rain Light Rain
1:35 AM 36.5 °F 24.9 °F 34.3 °F 92% 29.73 in 10.0 mi ENE 24.2 mph 38.0 mph N/A   Overcast
1:55 AM 36.5 °F 24.9 °F 34.3 °F 92% 29.74 in 10.0 mi ENE 24.2 mph 33.4 mph N/A   Overcast
2:15 AM 36.5 °F 24.9 °F 34.2 °F 91% 29.72 in 10.0 mi East 24.2 mph 32.2 mph N/A   Overcast
2:35 AM 36.5 °F 25.2 °F 34.2 °F 91% 29.72 in 10.0 mi East 23.0 mph 32.2 mph N/A   Overcast
2:55 AM 36.5 °F 25.7 °F 34.2 °F 91% 29.71 in 10.0 mi ENE 20.7 mph 28.8 mph N/A   Overcast
3:15 AM 36.5 °F 25.4 °F 34.2 °F 91% 29.72 in 10.0 mi ENE 21.9 mph 27.6 mph N/A   Overcast
3:35 AM 36.5 °F 25.2 °F 34.2 °F 91% 29.70 in 10.0 mi ENE 23.0 mph 26.5 mph N/A   Overcast
3:55 AM 36.5 °F 25.4 °F 34.2 °F 91% 29.71 in 10.0 mi East 21.9 mph 28.8 mph N/A   Overcast
4:15 AM 36.5 °F 26.3 °F 34.7 °F 93% 29.71 in 3.0 mi East 18.4 mph - N/A Rain Light Rain
4:35 AM 36.5 °F 24.4 °F 34.3 °F 92% 29.67 in 3.0 mi East 26.5 mph 31.1 mph 0.01 in Rain Light Rain
4:55 AM 36.5 °F 25.4 °F 34.5 °F 93% 29.67 in 10.0 mi ENE 21.9 mph 28.8 mph 0.01 in   Overcast
5:15 AM 36.5 °F 25.7 °F 34.7 °F 93% 29.67 in 10.0 mi East 20.7 mph 28.8 mph N/A   Overcast
5:35 AM 36.5 °F 25.4 °F 34.5 °F 93% 29.67 in 3.0 mi East 21.9 mph 25.3 mph N/A   Light Drizzle
5:55 AM 36.5 °F 26.0 °F 34.7 °F 93% 29.65 in 10.0 mi ENE 19.6 mph 26.5 mph N/A   Overcast
6:15 AM 36.5 °F 25.7 °F 34.7 °F 93% 29.66 in 10.0 mi East 20.7 mph 25.3 mph N/A   Overcast
6:35 AM 36.7 °F 26.0 °F 34.7 °F 93% 29.66 in 3.0 mi East 20.7 mph 27.6 mph N/A Snow Light Snow
6:55 AM 36.9 °F 26.5 °F 34.9 °F 93% 29.66 in 1.0 mi ENE 19.6 mph 26.5 mph N/A Rain Rain
7:15 AM 37.4 °F 27.8 °F 35.4 °F 93% 29.65 in 1.8 mi ENE 17.3 mph - N/A Rain Light Rain
7:35 AM 37.6 °F 27.7 °F 35.6 °F 93% 29.64 in 1.8 mi ENE 18.4 mph - N/A Rain Light Rain
7:55 AM 37.6 °F 28.1 °F 35.6 °F 93% 29.65 in 1.5 mi ENE 17.3 mph - 0.01 in Rain Light Rain
8:35 AM 38.3 °F 29.0 °F 36.3 °F 93% 29.63 in 1.2 mi East 17.3 mph - 0.01 in Rain Light Rain
8:55 AM 38.7 °F 29.5 °F 36.7 °F 93% 29.63 in 1.2 mi ENE 17.3 mph - 0.01 in Rain Light Rain
9:15 AM 39.0 °F 30.3 °F 36.9 °F 92% 29.64 in 1.0 mi ENE 16.1 mph - N/A   Overcast
9:35 AM 39.2 °F 29.8 °F 37.2 °F 93% 29.63 in 1.2 mi ENE 18.4 mph 21.9 mph N/A Rain Light Rain
9:55 AM 41.0 °F 32.8 °F 37.4 °F 87% 29.62 in 1.5 mi East 16.1 mph 21.9 mph N/A   Unknown
10:15 AM 40.1 °F 31.6 °F 38.1 °F 93% 29.62 in 2.5 mi East 16.1 mph - N/A   Overcast
10:35 AM 40.1 °F 32.0 °F 38.3 °F 93% 29.62 in 2.0 mi ENE 15.0 mph 18.4 mph N/A   Overcast
10:55 AM 40.3 °F 32.6 °F 38.3 °F 93% 29.62 in 2.0 mi ENE 13.8 mph - N/A   Overcast
11:15 AM 40.6 °F 33.0 °F 38.7 °F 93% 29.63 in 1.2 mi ENE 13.8 mph - N/A   Overcast
11:35 AM 41.0 °F 34.7 °F 39.2 °F 93% 29.63 in 1.5 mi ENE 10.4 mph - N/A   Overcast
11:55 AM 41.4 °F 34.7 °F 39.4 °F 93% 29.62 in 1.2 mi ENE 11.5 mph - N/A   Overcast
12:15 PM 41.9 °F 34.6 °F 39.6 °F 91% 29.59 in 1.2 mi ENE 13.8 mph 18.4 mph N/A   Overcast
12:35 PM 42.1 °F 35.7 °F 39.9 °F 92% 29.60 in 1.5 mi East 11.5 mph - N/A   Overcast
12:55 PM 42.8 °F 37.5 °F 40.5 °F 91% 29.60 in 1.5 mi East 9.2 mph - N/A   Overcast
1:15 PM 42.8 °F 38.0 °F 40.6 °F 92% 29.59 in 1.5 mi East 8.1 mph - N/A   Overcast
1:35 PM 43.3 °F 38.6 °F 41.2 °F 92% 29.59 in 1.2 mi East 8.1 mph - N/A   Overcast
1:55 PM 43.3 °F 39.9 °F 41.2 °F 92% 29.60 in 1.8 mi ESE 5.8 mph - N/A   Overcast
2:15 PM 43.9 °F 42.3 °F 41.9 °F 93% 29.61 in 1.2 mi SE 3.5 mph - N/A   Overcast
2:35 PM 44.2 °F 42.7 °F 42.1 °F 92% 29.59 in 1.5 mi SE 3.5 mph - N/A   Overcast
2:55 PM 44.6 °F 41.4 °F 42.4 °F 92% 29.60 in 1.2 mi South 5.8 mph - N/A   Overcast
3:15 PM 44.8 °F 42.4 °F 42.6 °F 92% 29.59 in 1.5 mi South 4.6 mph - N/A   Overcast
3:35 PM 45.5 °F 42.5 °F 43.2 °F 92% 29.59 in 1.2 mi South 5.8 mph - N/A   Overcast
3:55 PM 45.5 °F 44.2 °F 43.5 °F 93% 29.57 in 1.2 mi SW 3.5 mph - N/A   Overcast
4:15 PM 45.9 °F 43.6 °F 43.7 °F 92% 29.57 in 5.0 mi WSW 4.6 mph - N/A   Overcast
4:35 PM 45.7 °F 44.4 °F 43.7 °F 93% 29.57 in 10.0 mi SW 3.5 mph - N/A   Overcast
4:55 PM 45.9 °F 42.3 °F 43.7 °F 92% 29.57 in 10.0 mi SW 6.9 mph - N/A   Overcast
5:15 PM 45.9 °F 42.3 °F 43.7 °F 92% 29.59 in 10.0 mi WSW 6.9 mph - N/A   Overcast
5:35 PM 45.5 °F 40.8 °F 43.3 °F 92% 29.59 in 10.0 mi SW 9.2 mph - N/A   Overcast
5:55 PM 45.7 °F 41.5 °F 43.7 °F 93% 29.59 in 10.0 mi WSW 8.1 mph - N/A   Overcast
6:15 PM 45.5 °F 42.5 °F 43.3 °F 92% 29.58 in 10.0 mi West 5.8 mph - N/A   Overcast
6:35 PM 45.7 °F 44.4 °F 43.3 °F 92% 29.56 in 10.0 mi WSW 3.5 mph - N/A   Overcast
6:55 PM 46.4 °F 45.2 °F 43.7 °F 90% 29.56 in 10.0 mi WSW 3.5 mph - N/A   Overcast
7:15 PM 45.7 °F 42.7 °F 43.0 °F 90% 29.57 in 10.0 mi SW 5.8 mph - N/A   Overcast
7:35 PM 45.7 °F 41.5 °F 43.0 °F 90% 29.57 in 10.0 mi SW 8.1 mph - N/A   Overcast
7:55 PM 45.0 °F 37.6 °F 42.3 °F 90% 29.57 in 10.0 mi WSW 17.3 mph 21.9 mph N/A   Overcast
8:15 PM 43.5 °F 34.7 °F 41.2 °F 91% 29.56 in 3.0 mi WSW 21.9 mph 26.5 mph N/A   Overcast
8:55 PM 41.4 °F 33.6 °F 39.2 °F 92% 29.57 in 10.0 mi WSW 15.0 mph - N/A   Overcast
9:15 PM 40.8 °F 32.3 °F 38.3 °F 91% 29.57 in 10.0 mi WSW 17.3 mph 21.9 mph N/A   Overcast
9:35 PM 40.1 °F 31.3 °F 37.8 °F 91% 29.58 in 7.0 mi WSW 17.3 mph 23.0 mph N/A   Overcast
9:55 PM 39.2 °F 29.0 °F 36.7 °F 91% 29.58 in 10.0 mi WSW 21.9 mph - N/A   Overcast
10:15 PM 38.8 °F 29.7 °F 36.5 °F 91% 29.58 in 10.0 mi WSW 17.3 mph 21.9 mph N/A   Overcast
10:35 PM 38.8 °F 30.0 °F 36.5 °F 91% 29.59 in 7.0 mi WSW 16.1 mph 21.9 mph N/A   Overcast
10:55 PM 38.1 °F 28.1 °F 35.6 °F 91% 29.59 in 4.0 mi WSW 19.6 mph 27.6 mph N/A   Overcast
11:15 PM 37.8 °F 29.0 °F 35.2 °F 91% 29.59 in 10.0 mi WSW 15.0 mph - N/A   Overcast
11:35 PM 37.8 °F 29.8 °F 35.2 °F 91% 29.60 in 10.0 mi WSW 12.7 mph 19.6 mph N/A   Overcast
11:55 PM 37.6 °F 29.6 °F 35.1 °F 91% 29.59 in 7.0 mi WSW 12.7 mph 20.7 mph N/A   Overcast